Retour au catalogue

CZ-6A DEB

ActifSSO
NORAD 54295·DEBRIS·🇨🇳 China

Lancé Nov 11, 2022 depuis Taiyuan Satellite Launch Center

Loading…

Prochains Passages (prochaines 24 heures)

TLE

FraisSource: Space-Track

Époque: Sep 14, 2026, 00:38 UTC

1 54295U 22151AN  26257.02667849  .00002039  00000-0  71289-3 0  9994
2 54295  98.7342 271.9958 0138712 259.9666  98.5841 14.31071624198750

Suivez CZ-6A DEB en temps réel avec AllMySat

Download on the App Store